Weather in Plakhtievka

Ukraine / Odesa District     46°05′39″N   29°43′12″E
temp.,
°C
wind,
m/s
gust,
m/s
humid.,
%
clouds,
%
prec.,
mm/h
press.,
hPa
HPBL,
m
8 august, mon
mon800:00+27n23325 0.0 101457
03:00+22n45512 0.0 101568
06:00+21n49703 0.0 1016168
09:00+27nne674122 0.0 1017542
12:00+34ne56205 0.0 10162546
15:00+32nne662278 0.0 10151365
18:00+35ese561843 0.0 10143024
21:00+30w112263 0.0 101412
9 august, tue
tue900:00+27nnw33273 0.0 101534
03:00+24nne48343 0.0 1014118
06:00+22nne59440 0.0 1014129
09:00+29ne57330 0.0 1015478
12:00+35ene55170 0.0 10142519
15:00+37e65121 0.0 10133877
18:00+36ese561210 0.0 10123330
21:00+28nnw10153862 0.0 1013415
10 august, wed
wed1000:00+26nne11174598 0.0 1013561
03:00+21nne81450100 0.0 1014422
06:00+22nne9165384 0.0 1014561
09:00+25nne91246100 0.0 1014757
12:00+32nne8928100 0.0 10131709
15:00+35n8722100 0.0 10123254
18:00+28n14164161 0.1 10111007
21:00+22n8166370 1.8 1014718
11 august, thu
thu1100:00+20n7147435 0.6 1014390
03:00+18nnw6138444 0.6 1013407
06:00+18nnw81481100 0.0 1012429
09:00+20nnw914686 0.0 1013546
12:00+29n910415 0.0 10121123
15:00+33nne87303 0.0 10122093
18:00+33nnw672878 0.0 10111532
21:00+26e465372 0.1 1012168
12 august, fri
fri1200:00+24nnw46590 0.0 101391
03:00+23nne51055100 0.0 1013267
06:00+23n61155100 0.0 1013299
09:00+27nne684036 0.0 1014709
12:00+33nne56283 0.0 10121907
15:00+36ne5622100 0.0 10103635
18:00+33nne78281 0.0 10101411
21:00+27nne610580 0.1 1011343